Wind_Speed
11 10 8 7 6 5 4 4 5 6 8 10 10 11 12 13 14 15 16 17 17 17 18 18 18 18 18 18 19 20 21 21 21 21 22 23 23 24 24 25 25 26 27
8 8 6 4 2 1 2 4 5 6 8 9 10 12 13 14 15 16 16 17 17 17 17 17 17 17 17 17 18 18 19 20 20 21 21 23 24 24 24 25 26 27 28
3 3 2 2 0 1 3 4 6 7 9 10 11 13 14 15 15 16 16 17 17 17 17 17 17 16 16 17 17 18 19 19 20 20 21 22 24 24 24 25 26 27 28
4 3 3 1 1 2 5 6 8 9 10 12 13 15 16 16 17 17 17 18 18 18 18 17 17 17 17 18 18 19 20 20 21 21 21 22 23 24 25 25 26 27 27
5 3 2 1 3 5 7 8 10 11 12 14 15 17 17 18 18 19 19 19 19 18 19 19 19 19 20 20 21 21 21 22 22 23 23 24 25 26 26 27 27 28 28
3 2 3 4 6 7 9 10 11 12 14 15 17 18 19 20 21 22 22 22 21 20 20 21 22 22 22 23 24 24 24 24 25 26 26 26 27 28 29 29 30 31 31
4 5 6 7 8 9 11 12 12 14 15 17 18 19 20 21 22 23 23 23 23 23 22 23 23 24 25 26 27 27 27 28 28 29 30 30 30 31 31 32 32 33 33
6 7 8 9 10 11 12 13 13 14 16 17 19 20 21 21 22 22 23 23 23 24 24 24 25 26 27 28 28 29 30 31 32 33 33 34 34 34 34 35 35 35 36
9 9 10 10 11 12 13 13 14 15 16 18 19 20 21 22 22 23 23 23 24 24 25 25 26 28 29 30 31 32 33 35 35 36 37 37 38 38 38 38 38 38 38
11 12 12 12 13 13 14 14 15 16 17 18 19 20 21 22 22 23 23 24 24 25 26 27 28 30 31 32 34 35 37 38 38 39 39 40 40 40 41 41 41 41 40
14 14 14 15 15 15 15 15 16 17 18 19 21 22 22 22 22 23 24 24 25 26 28 30 31 33 34 35 36 37 38 39 40 41 41 41 41 41 42 42 42 42 42
17 18 17 16 17 17 16 16 17 18 19 20 22 23 24 24 24 24 25 26 27 28 31 33 34 36 36 37 38 39 40 40 40 40 41 41 41 41 42 42 43 43 43
19 20 19 18 18 18 18 18 18 19 20 22 23 25 25 25 26 26 27 28 30 31 33 35 37 38 39 39 40 40 41 41 40 40 39 39 39 40 40 41 41 41 42
20 20 20 20 20 20 20 20 20 21 22 24 25 27 27 28 28 28 29 30 31 33 35 37 39 40 41 41 41 42 41 41 40 39 38 37 37 37 38 38 38 39 40
21 20 20 20 21 21 21 22 22 23 24 26 27 28 29 30 30 30 32 33 33 35 37 39 41 42 42 42 42 42 41 40 38 37 36 36 35 35 36 36 36 37 37
22 22 21 21 21 22 22 23 24 25 26 28 29 30 31 32 32 33 34 34 35 37 40 41 42 43 43 42 42 41 40 39 37 36 35 34 34 33 33 34 34 35 35
22 22 22 22 22 23 23 24 25 26 28 29 30 31 32 33 35 36 37 38 39 40 42 43 43 43 43 43 42 41 39 37 36 35 34 33 32 32 31 32 33 33 34
23 24 24 24 24 24 25 26 27 29 30 31 32 33 34 36 38 40 41 41 41 43 44 45 45 44 44 44 42 40 37 36 35 34 33 32 31 31 30 30 31 32 33
25 26 27 27 27 27 28 28 30 31 32 33 34 35 36 38 41 43 44 43 44 45 45 45 46 45 44 43 41 39 36 35 34 33 33 31 30 30 30 30 31 31 32
30 29 29 29 30 30 30 31 32 34 35 37 38 38 40 42 45 46 46 46 46 47 47 47 46 45 44 43 41 39 37 35 34 33 32 31 30 30 31 31 31 31 32
32 32 32 31 32 33 33 34 35 37 39 40 41 43 45 46 47 48 48 49 49 49 49 47 46 45 44 42 40 38 37 35 33 32 32 31 31 31 32 32 32 32 32
33 34 34 34 34 35 36 37 38 40 42 43 44 46 48 49 49 50 49 50 51 50 50 49 47 46 44 41 39 39 37 35 33 32 32 31 31 32 32 32 32 32 32
35 35 36 37 38 39 39 40 42 43 45 46 48 50 51 51 52 52 52 53 54 53 52 50 48 46 44 42 40 38 37 35 33 32 32 32 32 31 31 32 32 32 32
37 37 38 38 40 41 42 43 44 46 47 49 50 52 53 54 53 53 54 54 54 54 53 51 48 46 44 42 40 38 37 36 34 32 32 32 32 32 31 31 30 30 30
39 40 40 41 43 44 45 46 47 49 50 51 52 53 54 54 55 55 55 56 56 56 54 51 49 46 43 42 40 39 37 36 34 32 32 32 32 32 31 30 29 28 28
41 42 42 43 45 46 47 49 50 51 52 53 55 56 56 56 57 57 57 57 57 55 53 50 48 45 43 40 39 38 36 35 34 32 32 31 31 30 29 28 27 27 26
Wind_Direction
259 259 257 269 279 282 302 315 319 326 331 332 333 332 330 328 326 325 323 321 317 314 311 307 302 298 296 292 289 286 285 283 281 279 277 275 272 270 267 264 261 258 256
239 237 239 250 259 296 339 338 335 337 341 342 342 341 340 340 338 335 332 329 325 322 319 315 312 307 303 298 294 292 289 286 284 281 279 277 275 272 269 266 262 259 257
191 192 190 201 209 14 357 348 347 347 349 349 347 344 342 340 338 335 332 329 326 324 320 317 315 312 309 305 301 298 294 291 289 285 282 279 278 276 271 268 265 262 259
112 127 129 125 50 8 0 357 356 354 352 349 346 343 340 337 334 332 330 327 324 321 318 315 314 312 310 308 305 301 297 295 293 289 287 284 281 278 275 271 267 264 261
99 107 105 23 355 356 356 354 351 351 349 346 343 339 335 332 330 328 325 323 320 317 314 311 310 309 308 307 306 303 300 297 294 292 290 287 284 281 279 275 271 266 262
62 38 6 351 347 349 350 350 348 346 344 341 338 334 330 329 327 325 324 321 319 316 312 308 307 306 304 304 304 303 301 299 296 294 292 289 286 284 281 278 274 270 265
358 354 347 343 343 344 344 345 344 341 339 336 333 330 327 326 324 323 322 320 318 315 312 309 307 306 304 303 302 301 300 299 297 295 293 290 288 285 282 279 276 273 269
334 334 335 337 338 339 340 340 339 336 333 332 330 328 326 324 323 321 320 319 318 317 315 312 310 308 307 304 302 300 299 298 297 295 293 290 288 285 282 280 277 274 270
323 326 329 332 334 333 333 333 331 331 330 329 328 326 325 324 322 321 320 320 319 318 316 313 311 310 308 306 303 301 299 297 295 293 291 289 286 284 281 279 276 274 271
320 323 327 328 329 328 327 326 325 324 325 324 323 322 321 320 319 319 320 320 320 320 320 318 316 315 312 309 305 302 300 298 295 292 290 287 285 282 279 277 275 273 270
319 319 322 322 322 320 318 316 316 317 318 319 320 320 320 319 318 318 319 319 320 320 320 319 319 317 315 312 309 307 304 301 297 294 290 286 284 281 278 275 273 271 269
314 313 313 313 312 311 309 308 308 311 313 315 316 317 316 316 317 317 318 319 319 320 321 321 320 319 318 315 313 310 308 304 300 296 292 287 283 281 278 275 272 269 267
304 303 304 305 305 304 303 303 304 307 310 312 313 314 313 313 314 315 317 319 319 320 321 321 320 320 320 318 316 313 310 306 303 298 294 290 285 281 278 275 272 269 266
296 296 298 300 299 299 299 300 303 306 308 311 313 313 313 312 312 313 316 318 318 319 320 321 321 321 320 320 318 315 312 308 305 301 296 292 287 283 279 276 272 269 266
294 293 295 297 297 297 297 299 302 306 309 311 313 313 313 311 311 312 314 316 317 319 320 320 320 320 320 320 318 315 313 310 306 302 297 293 289 285 281 277 273 270 267
294 294 296 297 297 296 296 298 301 305 308 311 312 312 312 312 310 310 311 313 315 318 320 319 320 321 321 320 318 315 313 310 306 303 299 295 291 286 282 277 274 271 268
296 297 298 297 296 296 296 298 301 304 307 309 310 310 311 312 311 311 310 311 313 316 319 320 320 321 321 320 317 315 313 310 306 303 299 296 291 287 283 278 275 272 270
300 300 298 297 296 296 296 298 301 303 305 307 308 309 309 310 312 313 312 311 313 316 317 319 320 320 320 319 317 314 312 310 306 303 300 296 291 288 285 280 277 275 272
299 298 297 297 297 296 296 298 300 302 304 305 307 309 309 311 313 314 313 312 313 315 315 316 318 319 318 317 316 313 311 309 306 303 300 297 292 289 287 283 280 277 272
296 296 295 295 295 296 296 298 300 301 303 304 306 308 310 312 314 313 313 313 314 314 314 315 317 317 316 315 313 311 310 308 306 303 300 296 293 290 288 286 282 278 273
291 292 293 292 293 295 296 298 300 301 302 304 306 308 309 311 312 313 313 314 315 314 313 316 316 315 314 312 310 309 308 306 304 302 299 297 294 291 288 287 284 280 276
288 290 291 291 293 294 296 297 299 300 302 304 306 308 309 310 311 312 313 314 315 314 314 315 315 314 312 310 308 307 306 304 303 302 299 297 295 292 289 287 284 281 278
288 289 290 291 293 294 295 296 297 298 300 302 304 306 306 307 308 309 311 312 313 313 313 314 313 312 310 308 307 305 304 303 302 301 299 297 295 293 290 288 285 282 279
289 289 290 290 291 292 293 294 295 296 298 299 301 302 303 305 306 308 309 309 310 311 312 312 312 311 308 307 306 304 303 302 302 300 298 297 295 293 290 288 284 283 281
289 289 289 290 290 291 292 293 295 296 297 298 300 301 302 303 305 306 307 307 307 309 309 309 309 308 306 305 304 303 302 302 302 300 299 298 296 293 290 287 285 283 282
289 289 289 289 290 291 292 293 295 296 297 298 299 300 301 302 302 303 304 305 306 306 305 306 306 305 303 302 302 301 301 301 301 300 299 299 298 294 289 286 283 283 281
Height
5859 5861 5863 5864 5865 5866 5866 5866 5865 5865 5864 5863 5862 5860 5859 5857 5856 5854 5852 5850 5848 5846 5844 5843 5842 5840 5840 5839 5838 5837 5837 5836 5836 5836 5836 5836 5836 5837 5838 5839 5840 5842 5843
5857 5859 5862 5864 5864 5865 5865 5865 5864 5864 5863 5861 5860 5858 5857 5855 5853 5851 5849 5847 5845 5843 5842 5840 5839 5837 5836 5835 5834 5833 5832 5831 5831 5831 5831 5831 5831 5832 5832 5833 5834 5835 5837
5857 5859 5861 5863 5864 5864 5864 5864 5863 5862 5861 5860 5858 5857 5855 5853 5852 5850 5848 5846 5843 5841 5839 5837 5836 5834 5833 5831 5830 5829 5828 5827 5826 5826 5825 5825 5825 5825 5826 5826 5827 5828 5829
5858 5860 5861 5862 5863 5863 5863 5862 5861 5860 5859 5857 5856 5855 5853 5852 5850 5848 5846 5844 5841 5839 5837 5835 5833 5831 5830 5828 5826 5825 5824 5822 5821 5820 5820 5819 5818 5818 5819 5820 5820 5821 5822
5860 5861 5861 5862 5862 5862 5861 5860 5859 5858 5857 5855 5854 5852 5851 5849 5847 5845 5843 5841 5839 5837 5834 5832 5830 5828 5826 5824 5822 5821 5819 5818 5816 5815 5814 5813 5812 5811 5812 5812 5813 5814 5815
5860 5860 5860 5861 5860 5860 5859 5858 5857 5856 5855 5853 5852 5850 5848 5846 5844 5842 5839 5837 5835 5833 5831 5829 5826 5824 5822 5820 5818 5816 5814 5812 5810 5808 5807 5806 5806 5805 5804 5804 5804 5805 5807
5860 5860 5860 5859 5859 5858 5857 5856 5855 5854 5852 5851 5849 5847 5845 5843 5841 5838 5836 5833 5831 5829 5826 5824 5822 5819 5817 5815 5812 5810 5808 5805 5803 5801 5800 5798 5797 5797 5796 5796 5796 5796 5797
5860 5859 5858 5858 5857 5856 5854 5853 5852 5851 5850 5848 5847 5845 5842 5840 5838 5835 5832 5830 5827 5824 5821 5819 5816 5813 5811 5808 5806 5803 5801 5798 5796 5793 5791 5790 5788 5787 5786 5786 5786 5787 5787
5858 5857 5856 5855 5854 5853 5852 5851 5850 5849 5847 5846 5844 5842 5839 5837 5834 5831 5828 5825 5822 5819 5816 5814 5811 5808 5805 5802 5799 5796 5793 5790 5787 5785 5782 5780 5778 5777 5776 5776 5775 5776 5777
5856 5855 5854 5853 5852 5851 5850 5849 5848 5846 5845 5843 5841 5839 5837 5834 5831 5827 5824 5821 5817 5814 5811 5807 5804 5801 5798 5794 5791 5787 5784 5780 5777 5774 5772 5769 5767 5766 5765 5764 5764 5764 5765
5853 5852 5851 5850 5849 5848 5848 5846 5845 5844 5842 5840 5838 5835 5833 5830 5827 5824 5820 5816 5813 5809 5805 5801 5798 5794 5790 5786 5781 5777 5773 5770 5766 5763 5760 5757 5755 5753 5752 5751 5751 5751 5752
5851 5849 5849 5848 5847 5846 5845 5844 5842 5840 5839 5836 5834 5831 5828 5825 5822 5819 5815 5811 5808 5804 5800 5795 5791 5786 5781 5777 5772 5767 5763 5758 5754 5750 5747 5745 5742 5741 5739 5738 5738 5738 5739
5849 5847 5846 5845 5844 5842 5841 5840 5838 5836 5834 5832 5830 5827 5824 5821 5817 5813 5810 5806 5802 5797 5793 5788 5783 5778 5773 5767 5762 5757 5752 5747 5742 5738 5735 5732 5730 5728 5727 5726 5725 5725 5726
5846 5845 5843 5842 5840 5839 5837 5835 5834 5832 5830 5827 5825 5822 5818 5815 5811 5808 5804 5800 5795 5791 5786 5780 5775 5769 5763 5758 5752 5746 5741 5735 5731 5727 5723 5720 5718 5716 5714 5714 5713 5713 5714
5842 5841 5839 5838 5836 5834 5833 5831 5829 5827 5824 5821 5819 5816 5812 5809 5805 5801 5797 5793 5788 5783 5778 5772 5766 5760 5754 5748 5742 5736 5730 5725 5720 5716 5712 5709 5707 5705 5703 5702 5702 5702 5702
5838 5836 5835 5833 5832 5830 5828 5826 5824 5821 5818 5815 5812 5809 5805 5802 5798 5794 5790 5785 5781 5775 5770 5764 5757 5751 5744 5738 5732 5725 5720 5715 5710 5706 5702 5699 5696 5694 5693 5691 5691 5691 5691
5833 5831 5830 5828 5827 5825 5823 5820 5818 5815 5812 5809 5805 5802 5798 5794 5790 5786 5782 5777 5772 5766 5760 5754 5748 5741 5734 5728 5721 5715 5710 5705 5700 5696 5692 5689 5686 5684 5683 5681 5681 5680 5680
5828 5826 5824 5822 5821 5818 5816 5813 5811 5808 5805 5801 5798 5794 5790 5786 5782 5777 5772 5767 5762 5757 5751 5744 5738 5731 5724 5717 5711 5705 5700 5695 5690 5686 5682 5679 5677 5674 5673 5672 5671 5670 5670
5823 5821 5818 5815 5813 5811 5809 5806 5803 5800 5797 5793 5790 5786 5782 5777 5772 5767 5762 5757 5752 5746 5740 5734 5727 5720 5714 5707 5701 5695 5690 5686 5681 5677 5673 5670 5667 5665 5663 5662 5661 5660 5659
5816 5814 5811 5809 5806 5803 5800 5798 5795 5791 5788 5784 5780 5777 5772 5767 5763 5757 5751 5746 5740 5735 5729 5723 5716 5710 5703 5696 5691 5685 5681 5676 5672 5668 5664 5661 5658 5656 5654 5652 5651 5650 5649
5809 5806 5804 5801 5798 5795 5792 5789 5786 5782 5778 5774 5770 5766 5762 5757 5751 5746 5741 5735 5729 5723 5718 5712 5705 5699 5692 5686 5680 5675 5671 5667 5662 5659 5655 5652 5649 5647 5644 5642 5641 5639 5638
5801 5798 5795 5792 5789 5786 5783 5780 5776 5772 5768 5764 5760 5756 5751 5746 5740 5735 5730 5724 5718 5712 5706 5700 5694 5688 5682 5676 5670 5666 5661 5657 5653 5649 5645 5642 5639 5637 5634 5632 5630 5628 5627
5792 5789 5786 5783 5780 5777 5774 5770 5767 5762 5758 5754 5749 5745 5739 5734 5729 5723 5718 5712 5706 5700 5695 5689 5683 5677 5671 5665 5660 5656 5652 5647 5644 5640 5636 5633 5629 5627 5624 5622 5619 5618 5616
5782 5779 5777 5773 5770 5767 5763 5760 5756 5752 5747 5743 5738 5733 5728 5723 5717 5711 5706 5700 5694 5688 5682 5676 5670 5665 5660 5654 5649 5645 5641 5638 5634 5630 5627 5623 5619 5616 5614 5611 5609 5607 5606
5772 5769 5766 5763 5759 5755 5752 5748 5744 5740 5735 5731 5726 5720 5715 5710 5704 5699 5694 5688 5682 5676 5670 5664 5658 5653 5649 5644 5639 5635 5631 5627 5624 5620 5617 5613 5610 5607 5604 5602 5600 5598 5596
5760 5757 5754 5751 5747 5743 5739 5735 5731 5727 5722 5717 5712 5707 5701 5696 5691 5686 5681 5675 5670 5664 5658 5652 5647 5642 5637 5632 5628 5624 5621 5617 5614 5611 5607 5604 5600 5597 5594 5592 5591 5589 5587